Overview Statistics Trail Chart Weather Telemetry Raw packets
 

This is the latest recevied weather packets stored in our database for station/object N5CSU. If no packets are shown the sender has not sent any weather packets the latest 10 day(s).

<< 71 72 73 74 75 76 77 >>
Time Temp. Humidity Pressure Rain* Wind** Luminosity Snow
1788110291 36.67° C 43% 1016.7 hPa 0 mm - 319 W/m² -
1788109986 36.67° C 41% 1017 hPa 0 mm - 60 W/m² -
1788109680 36.67° C 42% 1016.8 hPa 0 mm - 340 W/m² -
1788109392 36.11° C 43% 1016.9 hPa 0 mm - 261 W/m² -
1788109078 36.11° C 44% 1016.9 hPa 0 mm - 211 W/m² -
1788108775 36.11° C 45% 1017 hPa 0 mm - 389 W/m² -
1788108471 36.11° C 45% 1017.1 hPa 0 mm - 242 W/m² -
1788108166 36.11° C 44% 1017.2 hPa 0 mm - 357 W/m² -
1788107857 35.56° C 47% 1017.2 hPa 0 mm - 432 W/m² -
1788107553 35.56° C 47% 1017.3 hPa 0 mm - 421 W/m² -
1788107247 35.56° C 47% 1017.4 hPa 0 mm - 258 W/m² -
1788106944 35.56° C 47% 1017.3 hPa 0 mm - 307 W/m² -
1788106639 35° C 48% 1017.5 hPa 0 mm - 439 W/m² -
1788106339 34.44° C 49% 1017.4 hPa 0 mm - 429 W/m² -
1788106035 34.44° C 50% 1017.4 hPa 0 mm - 420 W/m² -
1788105735 33.89° C 50% 1017.2 hPa 0 mm - 410 W/m² -
1788105431 33.89° C 53% 1017.5 hPa 0 mm - 401 W/m² -
1788105127 33.33° C 54% 1017.4 hPa 0 mm - 389 W/m² -
1788104816 32.78° C 55% 1017.3 hPa 0 mm - 262 W/m² -
1788104512 32.78° C 56% 1017.4 hPa 0 mm - 21 W/m² -
1788104209 32.78° C 57% 1017.5 hPa 0 mm - 20 W/m² -
1788103908 32.22° C 59% 1017.3 hPa 0 mm - 20 W/m² -
1788103607 31.67° C 60% 1017.4 hPa 0 mm - 19 W/m² -
1788103301 31.67° C 60% 1017.3 hPa 0 mm - 19 W/m² -
1788103000 31.67° C 61% 1017.4 hPa 0 mm - 18 W/m² -

* Rain latest hour (hover to see other rain measurements)
** Current wind speed in m/s (hover to see current wind gust speed)